Year,Month,Day,Hour,Minute,Value (Times are PST for windgust in km/hr)
2022,11,28,00,00,20.90
2022,11,28,00,01,19.30
2022,11,28,00,02,19.30
2022,11,28,00,03,17.70
2022,11,28,00,04,19.30
2022,11,28,00,05,20.90
2022,11,28,00,06,19.30
2022,11,28,00,07,17.70
2022,11,28,00,08,14.50
2022,11,28,00,09,17.70
2022,11,28,00,10,17.70
2022,11,28,00,11,14.50
2022,11,28,00,12,14.50
2022,11,28,00,13,12.90
2022,11,28,00,14,12.90
2022,11,28,00,15,12.90
2022,11,28,00,16,9.60
2022,11,28,00,17,8.10
2022,11,28,00,18,9.60
2022,11,28,00,19,4.80
2022,11,28,00,20,6.40
2022,11,28,00,21,6.40
2022,11,28,00,22,8.10
2022,11,28,00,23,11.30
2022,11,28,00,24,9.60
2022,11,28,00,25,12.90
2022,11,28,00,26,11.30
2022,11,28,00,27,8.10
2022,11,28,00,28,11.30
2022,11,28,00,29,8.10
2022,11,28,00,30,4.80
2022,11,28,00,31,4.80
2022,11,28,00,32,8.10
2022,11,28,00,33,6.40
2022,11,28,00,34,6.40
2022,11,28,00,35,4.80
2022,11,28,00,36,4.80
2022,11,28,00,37,6.40
2022,11,28,00,38,4.80
2022,11,28,00,39,6.40
2022,11,28,00,40,4.80
2022,11,28,00,41,4.80
2022,11,28,00,42,4.80
2022,11,28,00,43,3.20
2022,11,28,00,44,1.60
2022,11,28,00,45,8.10
2022,11,28,00,46,8.10
2022,11,28,00,47,6.40
2022,11,28,00,48,6.40
2022,11,28,00,49,9.60
2022,11,28,00,50,11.30
2022,11,28,00,51,8.10
2022,11,28,00,52,6.40
2022,11,28,00,53,9.60
2022,11,28,00,54,8.10
2022,11,28,00,55,8.10
2022,11,28,00,56,6.40
2022,11,28,00,57,6.40
2022,11,28,00,58,9.60
2022,11,28,00,59,9.60
2022,11,28,01,00,6.40
2022,11,28,01,01,8.10
2022,11,28,01,02,6.40
2022,11,28,01,03,4.80
2022,11,28,01,04,1.60
2022,11,28,01,05,1.60
2022,11,28,01,06,3.20
2022,11,28,01,08,1.60
2022,11,28,01,09,1.60
2022,11,28,01,11,3.20
2022,11,28,01,12,6.40
2022,11,28,01,13,4.80
2022,11,28,01,14,3.20
2022,11,28,01,15,4.80
2022,11,28,01,16,3.20
2022,11,28,01,17,4.80
2022,11,28,01,18,4.80
2022,11,28,01,19,3.20
2022,11,28,01,20,3.20
2022,11,28,01,21,11.30
2022,11,28,01,22,14.50
2022,11,28,01,23,9.60
2022,11,28,01,24,8.10
2022,11,28,01,25,8.10
2022,11,28,01,26,4.80
2022,11,28,01,27,3.20
2022,11,28,01,29,1.60
2022,11,28,01,30,1.60
2022,11,28,01,31,9.60
2022,11,28,01,32,14.50
2022,11,28,01,33,12.90
2022,11,28,01,34,9.60
2022,11,28,01,35,8.10
2022,11,28,01,36,12.90
2022,11,28,01,37,9.60
2022,11,28,01,38,8.10
2022,11,28,01,39,12.90
2022,11,28,01,40,9.60
2022,11,28,01,41,12.90
2022,11,28,01,42,12.90
2022,11,28,01,43,12.90
2022,11,28,01,44,12.90
2022,11,28,01,45,17.70
2022,11,28,01,46,16.10
2022,11,28,01,47,17.70
2022,11,28,01,48,16.10
2022,11,28,01,49,14.50
2022,11,28,01,50,12.90
2022,11,28,01,51,12.90
2022,11,28,01,52,9.60
2022,11,28,01,53,12.90
2022,11,28,01,54,12.90
2022,11,28,01,55,12.90
2022,11,28,01,56,12.90
2022,11,28,01,57,9.60
2022,11,28,01,58,9.60
2022,11,28,01,59,9.60
2022,11,28,02,00,9.60
2022,11,28,02,01,12.90
2022,11,28,02,02,14.50
2022,11,28,02,03,14.50
2022,11,28,02,04,12.90
2022,11,28,02,05,16.10
2022,11,28,02,06,14.50
2022,11,28,02,07,14.50
2022,11,28,02,08,14.50
2022,11,28,02,09,14.50
2022,11,28,02,10,16.10
2022,11,28,02,11,14.50
2022,11,28,02,12,14.50
2022,11,28,02,13,16.10
2022,11,28,02,14,14.50
2022,11,28,02,15,16.10
2022,11,28,02,16,17.70
2022,11,28,02,17,16.10
2022,11,28,02,18,16.10
2022,11,28,02,19,14.50
2022,11,28,02,20,12.90
2022,11,28,02,21,8.10
2022,11,28,02,22,8.10
2022,11,28,02,23,8.10
2022,11,28,02,24,14.50
2022,11,28,02,25,16.10
2022,11,28,02,26,12.90
2022,11,28,02,27,8.10
2022,11,28,02,29,6.40
2022,11,28,02,30,8.10
2022,11,28,02,31,8.10
2022,11,28,02,32,4.80
2022,11,28,02,33,14.50
2022,11,28,02,34,12.90
2022,11,28,02,35,6.40
2022,11,28,02,36,24.20
2022,11,28,02,37,17.70
2022,11,28,02,38,16.10
2022,11,28,02,39,14.50
2022,11,28,02,40,12.90
2022,11,28,02,41,19.30
2022,11,28,02,42,20.90
2022,11,28,02,43,19.30
2022,11,28,02,44,16.10
2022,11,28,02,45,12.90
2022,11,28,02,46,14.50
2022,11,28,02,47,19.30
2022,11,28,02,48,16.10
2022,11,28,02,49,16.10
2022,11,28,02,50,17.70
2022,11,28,02,51,17.70
2022,11,28,02,52,16.10
2022,11,28,02,53,17.70
2022,11,28,02,54,19.30
2022,11,28,02,55,16.10
2022,11,28,02,56,19.30
2022,11,28,02,57,16.10
2022,11,28,02,58,12.90
2022,11,28,02,59,8.10
2022,11,28,03,00,9.60
2022,11,28,03,01,14.50
2022,11,28,03,02,14.50
2022,11,28,03,03,12.90
2022,11,28,03,04,19.30
2022,11,28,03,05,20.90
2022,11,28,03,06,19.30
2022,11,28,03,07,20.90
2022,11,28,03,08,19.30
2022,11,28,03,09,16.10
2022,11,28,03,10,16.10
2022,11,28,03,11,17.70
2022,11,28,03,12,27.40
2022,11,28,03,13,17.70
2022,11,28,03,14,19.30
2022,11,28,03,15,16.10
2022,11,28,03,16,19.30
2022,11,28,03,17,14.50
2022,11,28,03,18,14.50
2022,11,28,03,19,12.90
2022,11,28,03,20,16.10
2022,11,28,03,21,24.20
2022,11,28,03,22,33.80
2022,11,28,03,23,20.90
2022,11,28,03,24,14.50
2022,11,28,03,25,17.70
2022,11,28,03,26,20.90
2022,11,28,03,27,22.50
2022,11,28,03,28,17.70
2022,11,28,03,29,16.10
2022,11,28,03,30,22.50
2022,11,28,03,31,17.70
2022,11,28,03,32,29.00
2022,11,28,03,33,32.20
2022,11,28,03,34,29.00
2022,11,28,03,35,25.70
2022,11,28,03,36,22.50
2022,11,28,03,37,24.20
2022,11,28,03,38,22.50
2022,11,28,03,39,35.40
2022,11,28,03,40,30.60
2022,11,28,03,41,29.00
2022,11,28,03,42,29.00
2022,11,28,03,43,29.00
2022,11,28,03,44,24.20
2022,11,28,03,45,27.40
2022,11,28,03,46,27.40
2022,11,28,03,47,30.60
2022,11,28,03,48,29.00
2022,11,28,03,49,29.00
2022,11,28,03,50,27.40
2022,11,28,03,51,25.70
2022,11,28,03,52,32.20
2022,11,28,03,53,27.40
2022,11,28,03,54,25.70
2022,11,28,03,55,27.40
2022,11,28,03,56,30.60
2022,11,28,03,57,29.00
2022,11,28,03,58,25.70
2022,11,28,03,59,25.70
2022,11,28,04,00,29.00
2022,11,28,04,01,27.40
2022,11,28,04,02,32.20
2022,11,28,04,03,25.70
2022,11,28,04,04,32.20
2022,11,28,04,05,30.60
2022,11,28,04,06,29.00
2022,11,28,04,07,32.20
2022,11,28,04,08,32.20
2022,11,28,04,09,24.20
2022,11,28,04,10,32.20
2022,11,28,04,11,29.00
2022,11,28,04,12,29.00
2022,11,28,04,13,27.40
2022,11,28,04,14,29.00
2022,11,28,04,15,30.60
2022,11,28,04,16,27.40
2022,11,28,04,17,30.60
2022,11,28,04,18,25.70
2022,11,28,04,19,29.00
2022,11,28,04,20,25.70
2022,11,28,04,21,25.70
2022,11,28,04,22,29.00
2022,11,28,04,23,29.00
2022,11,28,04,24,30.60
2022,11,28,04,25,25.70
2022,11,28,04,26,27.40
2022,11,28,04,27,25.70
2022,11,28,04,28,32.20
2022,11,28,04,29,29.00
2022,11,28,04,30,22.50
2022,11,28,04,31,29.00
2022,11,28,04,32,24.20
2022,11,28,04,33,22.50
2022,11,28,04,34,22.50
2022,11,28,04,35,25.70
2022,11,28,04,36,29.00
2022,11,28,04,37,27.40
2022,11,28,04,38,22.50
2022,11,28,04,39,20.90
2022,11,28,04,40,29.00
2022,11,28,04,41,25.70
2022,11,28,04,42,22.50
2022,11,28,04,43,29.00
2022,11,28,04,44,22.50
2022,11,28,04,45,32.20
2022,11,28,04,46,29.00
2022,11,28,04,47,29.00
2022,11,28,04,48,22.50
2022,11,28,04,49,25.70
2022,11,28,04,50,27.40
2022,11,28,04,51,29.00
2022,11,28,04,52,25.70
2022,11,28,04,53,25.70
2022,11,28,04,54,27.40
2022,11,28,04,55,24.20
2022,11,28,04,56,27.40
2022,11,28,04,57,27.40
2022,11,28,04,58,25.70
2022,11,28,04,59,29.00
2022,11,28,05,00,33.80
2022,11,28,05,01,32.20
2022,11,28,05,02,33.80
2022,11,28,05,03,37.00
2022,11,28,05,04,33.80
2022,11,28,05,05,41.80
2022,11,28,05,06,38.60
2022,11,28,05,07,35.40
2022,11,28,05,08,33.80
2022,11,28,05,09,37.00
2022,11,28,05,10,33.80
2022,11,28,05,11,33.80
2022,11,28,05,12,37.00
2022,11,28,05,13,30.60
2022,11,28,05,14,30.60
2022,11,28,05,15,37.00
2022,11,28,05,16,32.20
2022,11,28,05,17,30.60
2022,11,28,05,18,32.20
2022,11,28,05,19,32.20
2022,11,28,05,20,29.00
2022,11,28,05,21,29.00
2022,11,28,05,22,27.40
2022,11,28,05,23,29.00
2022,11,28,05,24,30.60
2022,11,28,05,25,32.20
2022,11,28,05,26,33.80
2022,11,28,05,27,30.60
2022,11,28,05,28,30.60
2022,11,28,05,29,30.60
2022,11,28,05,30,25.70
2022,11,28,05,31,27.40
2022,11,28,05,32,29.00
2022,11,28,05,33,29.00
2022,11,28,05,34,25.70
2022,11,28,05,35,30.60
2022,11,28,05,36,30.60
2022,11,28,05,37,29.00
2022,11,28,05,38,30.60
2022,11,28,05,39,32.20
2022,11,28,05,40,30.60
2022,11,28,05,41,30.60
2022,11,28,05,42,29.00
2022,11,28,05,43,32.20
2022,11,28,05,44,30.60
2022,11,28,05,45,32.20
2022,11,28,05,46,33.80
2022,11,28,05,47,27.40
2022,11,28,05,48,30.60
2022,11,28,05,49,32.20
2022,11,28,05,50,32.20
2022,11,28,05,51,29.00
2022,11,28,05,52,30.60
2022,11,28,05,53,29.00
2022,11,28,05,54,30.60
2022,11,28,05,55,29.00
2022,11,28,05,56,29.00
2022,11,28,05,57,29.00
2022,11,28,05,58,25.70
2022,11,28,05,59,20.90
2022,11,28,06,00,27.40
2022,11,28,06,01,24.20
2022,11,28,06,02,24.20
2022,11,28,06,03,25.70
2022,11,28,06,04,29.00
2022,11,28,06,05,24.20
2022,11,28,06,06,25.70
2022,11,28,06,07,25.70
2022,11,28,06,08,25.70
2022,11,28,06,09,22.50
2022,11,28,06,10,20.90
2022,11,28,06,11,20.90
2022,11,28,06,12,20.90
2022,11,28,06,13,24.20
2022,11,28,06,14,20.90
2022,11,28,06,15,24.20
2022,11,28,06,16,22.50
2022,11,28,06,17,22.50
2022,11,28,06,18,27.40
2022,11,28,06,19,22.50
2022,11,28,06,20,22.50
2022,11,28,06,21,24.20
2022,11,28,06,22,24.20
2022,11,28,06,23,24.20
2022,11,28,06,24,27.40
2022,11,28,06,25,29.00
2022,11,28,06,26,25.70
2022,11,28,06,27,27.40
2022,11,28,06,28,24.20
2022,11,28,06,29,25.70
2022,11,28,06,30,24.20
2022,11,28,06,31,27.40
2022,11,28,06,32,29.00
2022,11,28,06,33,25.70
2022,11,28,06,34,22.50
2022,11,28,06,35,29.00
2022,11,28,06,36,27.40
2022,11,28,06,37,27.40
2022,11,28,06,38,24.20
2022,11,28,06,39,25.70
2022,11,28,06,40,24.20
2022,11,28,06,41,25.70
2022,11,28,06,42,25.70
2022,11,28,06,43,25.70
2022,11,28,06,44,25.70
2022,11,28,06,45,25.70
2022,11,28,06,46,29.00
2022,11,28,06,47,29.00
2022,11,28,06,48,29.00
2022,11,28,06,49,25.70
2022,11,28,06,50,25.70
2022,11,28,06,51,25.70
2022,11,28,06,52,27.40
2022,11,28,06,53,25.70
2022,11,28,06,54,25.70
2022,11,28,06,55,27.40
2022,11,28,06,56,25.70
2022,11,28,06,57,25.70
2022,11,28,06,58,22.50
2022,11,28,06,59,25.70
2022,11,28,07,00,22.50
2022,11,28,07,01,22.50
2022,11,28,07,02,22.50
2022,11,28,07,03,24.20
2022,11,28,07,04,25.70
2022,11,28,07,05,25.70
2022,11,28,07,06,24.20
2022,11,28,07,07,22.50
2022,11,28,07,08,25.70
2022,11,28,07,09,25.70
2022,11,28,07,10,27.40
2022,11,28,07,11,24.20
2022,11,28,07,12,27.40
2022,11,28,07,13,25.70
2022,11,28,07,14,24.20
2022,11,28,07,15,29.00
2022,11,28,07,16,24.20
2022,11,28,07,17,24.20
2022,11,28,07,18,29.00
2022,11,28,07,19,29.00
2022,11,28,07,20,25.70
2022,11,28,07,21,27.40
2022,11,28,07,22,27.40
2022,11,28,07,23,29.00
2022,11,28,07,24,29.00
2022,11,28,07,25,27.40
2022,11,28,07,26,27.40
2022,11,28,07,27,27.40
2022,11,28,07,28,29.00
2022,11,28,07,29,27.40
2022,11,28,07,30,27.40
2022,11,28,07,31,29.00
2022,11,28,07,32,29.00
2022,11,28,07,33,30.60
2022,11,28,07,34,29.00
2022,11,28,07,35,25.70
2022,11,28,07,36,27.40
2022,11,28,07,37,27.40
2022,11,28,07,38,29.00
2022,11,28,07,39,29.00
2022,11,28,07,40,27.40
2022,11,28,07,41,29.00
2022,11,28,07,42,29.00
2022,11,28,07,43,29.00
2022,11,28,07,44,27.40
2022,11,28,07,45,32.20
2022,11,28,07,46,29.00
2022,11,28,07,47,27.40
2022,11,28,07,48,24.20
2022,11,28,07,49,27.40
2022,11,28,07,50,27.40
2022,11,28,07,51,25.70
2022,11,28,07,52,25.70
2022,11,28,07,53,25.70
2022,11,28,07,54,24.20
2022,11,28,07,55,25.70
2022,11,28,07,56,22.50
2022,11,28,07,57,25.70
2022,11,28,07,58,25.70
2022,11,28,07,59,25.70
2022,11,28,08,00,25.70
2022,11,28,08,01,29.00
2022,11,28,08,02,25.70
2022,11,28,08,03,25.70
2022,11,28,08,04,27.40
2022,11,28,08,05,27.40
2022,11,28,08,06,25.70
2022,11,28,08,07,27.40
2022,11,28,08,08,25.70
2022,11,28,08,09,25.70
2022,11,28,08,10,27.40
2022,11,28,08,11,32.20
2022,11,28,08,12,37.00
2022,11,28,08,13,32.20
2022,11,28,08,14,30.60
2022,11,28,08,15,33.80
2022,11,28,08,16,35.40
2022,11,28,08,17,35.40
2022,11,28,08,18,37.00
2022,11,28,08,19,38.60
2022,11,28,08,20,33.80
2022,11,28,08,21,33.80
2022,11,28,08,22,32.20
2022,11,28,08,23,41.80
2022,11,28,08,24,40.20
2022,11,28,08,25,38.60
2022,11,28,08,26,37.00
2022,11,28,08,27,38.60
2022,11,28,08,28,37.00
2022,11,28,08,29,40.20
2022,11,28,08,30,37.00
2022,11,28,08,31,33.80
2022,11,28,08,32,32.20
2022,11,28,08,33,33.80
2022,11,28,08,34,32.20
2022,11,28,08,35,32.20
2022,11,28,08,36,29.00
2022,11,28,08,37,25.70
2022,11,28,08,38,27.40
2022,11,28,08,39,29.00
2022,11,28,08,40,32.20
2022,11,28,08,41,30.60
2022,11,28,08,42,35.40
2022,11,28,08,43,33.80
2022,11,28,08,44,35.40
2022,11,28,08,45,33.80
2022,11,28,08,46,37.00
2022,11,28,08,47,33.80
2022,11,28,08,48,32.20
2022,11,28,08,49,9.60
2022,11,28,08,50,9.60
2022,11,28,08,51,6.40
2022,11,28,08,52,4.80
2022,11,28,08,53,4.80
2022,11,28,08,54,4.80
2022,11,28,08,55,3.20
2022,11,28,08,56,3.20
2022,11,28,08,57,3.20
2022,11,28,08,58,4.80
2022,11,28,08,59,3.20
2022,11,28,09,00,3.20
2022,11,28,09,01,3.20
2022,11,28,09,02,1.60
2022,11,28,09,03,16.10
2022,11,28,09,04,16.10
2022,11,28,09,05,12.90
2022,11,28,09,06,16.10
2022,11,28,09,07,20.90
2022,11,28,09,08,20.90
2022,11,28,09,09,24.20
2022,11,28,09,10,22.50
2022,11,28,09,11,20.90
2022,11,28,09,12,20.90
2022,11,28,09,13,20.90
2022,11,28,09,14,22.50
2022,11,28,09,15,20.90
2022,11,28,09,16,25.70
2022,11,28,09,17,24.20
2022,11,28,09,18,22.50
2022,11,28,09,19,25.70
2022,11,28,09,20,24.20
2022,11,28,09,21,27.40
2022,11,28,09,22,24.20
2022,11,28,09,23,27.40
2022,11,28,09,24,27.40
2022,11,28,09,25,24.20
2022,11,28,09,26,25.70
2022,11,28,09,27,27.40
2022,11,28,09,28,25.70
2022,11,28,09,29,24.20
2022,11,28,09,30,25.70
2022,11,28,09,31,24.20
2022,11,28,09,32,24.20
2022,11,28,09,33,25.70
2022,11,28,09,34,24.20
2022,11,28,09,35,25.70
2022,11,28,09,36,19.30
2022,11,28,09,37,25.70
2022,11,28,09,38,24.20
2022,11,28,09,39,24.20
2022,11,28,09,40,29.00
2022,11,28,09,41,24.20
2022,11,28,09,42,20.90
2022,11,28,09,43,20.90
2022,11,28,09,44,22.50
2022,11,28,09,45,25.70
2022,11,28,09,46,25.70
2022,11,28,09,47,27.40
2022,11,28,09,48,27.40
2022,11,28,09,49,25.70
2022,11,28,09,50,22.50
2022,11,28,09,51,24.20
2022,11,28,09,52,29.00
2022,11,28,09,53,19.30
2022,11,28,09,54,22.50
2022,11,28,09,55,24.20
2022,11,28,09,56,30.60
2022,11,28,09,57,24.20
2022,11,28,09,58,22.50
2022,11,28,09,59,22.50
2022,11,28,10,00,22.50
2022,11,28,10,01,24.20
2022,11,28,10,02,24.20
2022,11,28,10,03,22.50
2022,11,28,10,04,24.20
2022,11,28,10,05,22.50
2022,11,28,10,06,22.50
2022,11,28,10,07,20.90
2022,11,28,10,08,17.70
2022,11,28,10,09,19.30
2022,11,28,10,10,19.30
2022,11,28,10,11,19.30
2022,11,28,10,12,20.90
2022,11,28,10,13,22.50
2022,11,28,10,14,17.70
2022,11,28,10,15,22.50
2022,11,28,10,16,20.90
2022,11,28,10,17,17.70
2022,11,28,10,18,17.70
2022,11,28,10,19,20.90
2022,11,28,10,20,19.30
2022,11,28,10,21,19.30
2022,11,28,10,22,22.50
2022,11,28,10,23,20.90
2022,11,28,10,24,20.90
2022,11,28,10,25,20.90
2022,11,28,10,26,22.50
2022,11,28,10,27,22.50
2022,11,28,10,28,20.90
2022,11,28,10,29,19.30
2022,11,28,10,30,16.10
2022,11,28,10,31,17.70
2022,11,28,10,32,16.10
2022,11,28,10,33,19.30
2022,11,28,10,34,20.90
2022,11,28,10,35,19.30
2022,11,28,10,36,17.70
2022,11,28,10,37,17.70
2022,11,28,10,38,17.70
2022,11,28,10,39,19.30
2022,11,28,10,40,19.30
2022,11,28,10,41,19.30
2022,11,28,10,42,17.70
2022,11,28,10,43,17.70
2022,11,28,10,44,12.90
2022,11,28,10,45,19.30
2022,11,28,10,46,17.70
2022,11,28,10,47,17.70
2022,11,28,10,48,16.10
2022,11,28,10,49,16.10
2022,11,28,10,50,14.50
2022,11,28,10,51,14.50
2022,11,28,10,52,12.90
2022,11,28,10,53,22.50
2022,11,28,10,54,14.50
2022,11,28,10,55,16.10
2022,11,28,10,56,16.10
2022,11,28,10,57,12.90
2022,11,28,10,58,14.50
2022,11,28,10,59,8.10
2022,11,28,11,00,9.60
2022,11,28,11,01,8.10
2022,11,28,11,02,14.50
2022,11,28,11,03,16.10
2022,11,28,11,04,16.10
2022,11,28,11,05,16.10
2022,11,28,11,06,16.10
2022,11,28,11,07,16.10
2022,11,28,11,08,17.70
2022,11,28,11,09,14.50
2022,11,28,11,10,11.30
2022,11,28,11,11,9.60
2022,11,28,11,12,12.90
2022,11,28,11,13,17.70
2022,11,28,11,14,17.70
2022,11,28,11,15,14.50
2022,11,28,11,16,14.50
2022,11,28,11,17,14.50
2022,11,28,11,18,11.30
2022,11,28,11,19,11.30
2022,11,28,11,20,11.30
2022,11,28,11,21,16.10
2022,11,28,11,22,16.10
2022,11,28,11,23,14.50
2022,11,28,11,24,14.50
2022,11,28,11,25,17.70
2022,11,28,11,26,17.70
2022,11,28,11,27,17.70
2022,11,28,11,28,16.10
2022,11,28,11,29,16.10
2022,11,28,11,30,17.70
2022,11,28,11,31,19.30
2022,11,28,11,32,20.90
2022,11,28,11,33,16.10
2022,11,28,11,34,19.30
2022,11,28,11,35,20.90
2022,11,28,11,36,20.90
2022,11,28,11,37,20.90
2022,11,28,11,38,19.30
2022,11,28,11,39,17.70
2022,11,28,11,40,16.10
2022,11,28,11,41,17.70
2022,11,28,11,42,12.90
2022,11,28,11,43,16.10
2022,11,28,11,44,14.50
2022,11,28,11,45,11.30
2022,11,28,11,46,17.70
2022,11,28,11,47,16.10
2022,11,28,11,48,12.90
2022,11,28,11,49,9.60
2022,11,28,11,50,9.60
2022,11,28,11,51,9.60
2022,11,28,11,52,9.60
2022,11,28,11,53,12.90
2022,11,28,11,54,12.90
2022,11,28,11,55,12.90
2022,11,28,11,56,11.30
2022,11,28,11,57,12.90
2022,11,28,11,58,8.10
2022,11,28,11,59,9.60
2022,11,28,12,00,12.90
2022,11,28,12,01,11.30
2022,11,28,12,02,6.40
2022,11,28,12,03,11.30
2022,11,28,12,04,12.90
2022,11,28,12,05,12.90
2022,11,28,12,06,9.60
2022,11,28,12,07,9.60
2022,11,28,12,08,12.90
2022,11,28,12,09,14.50
2022,11,28,12,10,11.30
2022,11,28,12,11,4.80
2022,11,28,12,12,6.40
2022,11,28,12,13,9.60
2022,11,28,12,14,8.10
2022,11,28,12,15,8.10
2022,11,28,12,16,14.50
2022,11,28,12,17,12.90
2022,11,28,12,18,12.90
2022,11,28,12,19,11.30
2022,11,28,12,20,8.10
2022,11,28,12,21,6.40
2022,11,28,12,22,8.10
2022,11,28,12,23,6.40
2022,11,28,12,24,6.40
2022,11,28,12,25,12.90
2022,11,28,12,26,8.10
2022,11,28,12,27,4.80
2022,11,28,12,28,1.60
2022,11,28,12,29,4.80
2022,11,28,12,30,9.60
2022,11,28,12,31,6.40
2022,11,28,12,32,4.80
2022,11,28,12,33,3.20
2022,11,28,12,34,4.80
2022,11,28,12,35,9.60
2022,11,28,12,36,12.90
2022,11,28,12,37,12.90
2022,11,28,12,38,11.30
2022,11,28,12,39,11.30
2022,11,28,12,40,4.80
2022,11,28,12,41,8.10
2022,11,28,12,42,6.40
2022,11,28,12,43,6.40
2022,11,28,12,44,6.40
2022,11,28,12,45,4.80
2022,11,28,12,46,8.10
2022,11,28,12,47,11.30
2022,11,28,12,48,11.30
2022,11,28,12,49,12.90
2022,11,28,12,50,12.90
2022,11,28,12,51,8.10
2022,11,28,12,52,8.10
2022,11,28,12,53,12.90
2022,11,28,12,54,12.90
2022,11,28,12,55,8.10
2022,11,28,12,56,8.10
2022,11,28,12,57,11.30
2022,11,28,12,58,6.40
2022,11,28,12,59,6.40
2022,11,28,13,00,6.40
2022,11,28,13,01,8.10
2022,11,28,13,02,9.60
2022,11,28,13,03,16.10
2022,11,28,13,04,9.60
2022,11,28,13,05,8.10
2022,11,28,13,06,11.30
2022,11,28,13,07,6.40
2022,11,28,13,08,4.80
2022,11,28,13,09,6.40
2022,11,28,13,10,11.30
2022,11,28,13,11,9.60
2022,11,28,13,12,8.10
2022,11,28,13,13,6.40
2022,11,28,13,14,8.10
2022,11,28,13,15,9.60
2022,11,28,13,16,11.30
2022,11,28,13,17,8.10
2022,11,28,13,18,9.60
2022,11,28,13,19,6.40
2022,11,28,13,20,8.10
2022,11,28,13,21,8.10
2022,11,28,13,22,9.60
2022,11,28,13,23,9.60
2022,11,28,13,24,8.10
2022,11,28,13,25,8.10
2022,11,28,13,26,8.10
2022,11,28,13,27,8.10
2022,11,28,13,28,8.10
2022,11,28,13,29,8.10
2022,11,28,13,30,8.10
2022,11,28,13,31,12.90
2022,11,28,13,32,9.60
2022,11,28,13,33,9.60
2022,11,28,13,34,14.50
2022,11,28,13,35,9.60
2022,11,28,13,36,9.60
2022,11,28,13,37,8.10
2022,11,28,13,38,11.30
2022,11,28,13,39,9.60
2022,11,28,13,40,6.40
2022,11,28,13,41,6.40
2022,11,28,13,42,9.60
2022,11,28,13,43,9.60
2022,11,28,13,44,12.90
2022,11,28,13,45,12.90
2022,11,28,13,46,11.30
2022,11,28,13,47,9.60
2022,11,28,13,48,14.50
2022,11,28,13,49,9.60
2022,11,28,13,50,11.30
2022,11,28,13,51,11.30
2022,11,28,13,52,6.40
2022,11,28,13,53,4.80
2022,11,28,13,54,4.80
2022,11,28,13,55,3.20
2022,11,28,13,57,1.60
2022,11,28,13,58,3.20
2022,11,28,13,59,6.40
2022,11,28,14,00,9.60
2022,11,28,14,01,9.60
2022,11,28,14,02,6.40
2022,11,28,14,03,3.20
2022,11,28,14,04,6.40
2022,11,28,14,05,8.10
2022,11,28,14,06,6.40
2022,11,28,14,07,4.80
2022,11,28,14,08,4.80
2022,11,28,14,09,4.80
2022,11,28,14,10,4.80
2022,11,28,14,11,4.80
2022,11,28,14,12,4.80
2022,11,28,14,13,3.20
2022,11,28,14,14,9.60
2022,11,28,14,15,6.40
2022,11,28,14,16,3.20
2022,11,28,14,17,8.10
2022,11,28,14,18,6.40
2022,11,28,14,19,8.10
2022,11,28,14,20,12.90
2022,11,28,14,21,12.90
2022,11,28,14,22,8.10
2022,11,28,14,23,12.90
2022,11,28,14,24,12.90
2022,11,28,14,25,14.50
2022,11,28,14,26,14.50
2022,11,28,14,27,12.90
2022,11,28,14,28,14.50
2022,11,28,14,29,11.30
2022,11,28,14,30,12.90
2022,11,28,14,31,12.90
2022,11,28,14,32,14.50
2022,11,28,14,33,12.90
2022,11,28,14,34,14.50
2022,11,28,14,35,14.50
2022,11,28,14,36,14.50
2022,11,28,14,37,12.90
2022,11,28,14,38,14.50
2022,11,28,14,39,14.50
2022,11,28,14,40,16.10
2022,11,28,14,41,12.90
2022,11,28,14,42,14.50
2022,11,28,14,43,12.90
2022,11,28,14,44,12.90
2022,11,28,14,45,12.90
2022,11,28,14,46,14.50
2022,11,28,14,47,12.90
2022,11,28,14,48,9.60
2022,11,28,14,49,11.30
2022,11,28,14,50,11.30
2022,11,28,14,51,14.50
2022,11,28,14,52,14.50
2022,11,28,14,53,8.10
2022,11,28,14,54,6.40
2022,11,28,14,55,9.60
2022,11,28,14,56,9.60
2022,11,28,14,57,12.90
2022,11,28,14,58,12.90
2022,11,28,14,59,16.10
2022,11,28,15,00,14.50
2022,11,28,15,01,14.50
2022,11,28,15,02,11.30
2022,11,28,15,03,11.30
2022,11,28,15,04,11.30
2022,11,28,15,05,11.30
2022,11,28,15,06,12.90
2022,11,28,15,07,11.30
2022,11,28,15,08,9.60
2022,11,28,15,09,12.90
2022,11,28,15,10,17.70
2022,11,28,15,11,14.50
2022,11,28,15,12,14.50
2022,11,28,15,13,16.10
2022,11,28,15,14,16.10
2022,11,28,15,15,16.10
2022,11,28,15,16,14.50
2022,11,28,15,17,11.30
2022,11,28,15,18,11.30
2022,11,28,15,19,11.30
2022,11,28,15,20,14.50
2022,11,28,15,21,14.50
2022,11,28,15,22,14.50
2022,11,28,15,23,9.60
2022,11,28,15,24,16.10
2022,11,28,15,25,16.10
2022,11,28,15,26,14.50
2022,11,28,15,27,17.70
2022,11,28,15,28,17.70
2022,11,28,15,29,17.70
2022,11,28,15,30,14.50
2022,11,28,15,31,16.10
2022,11,28,15,32,14.50
2022,11,28,15,33,17.70
2022,11,28,15,34,17.70
2022,11,28,15,35,17.70
2022,11,28,15,36,17.70
2022,11,28,15,37,19.30
2022,11,28,15,38,17.70
2022,11,28,15,39,17.70
2022,11,28,15,40,17.70
2022,11,28,15,41,16.10
2022,11,28,15,42,19.30
2022,11,28,15,43,16.10
2022,11,28,15,44,14.50
2022,11,28,15,45,16.10
2022,11,28,15,46,16.10
2022,11,28,15,47,19.30
2022,11,28,15,48,19.30
2022,11,28,15,49,17.70
2022,11,28,15,50,12.90
2022,11,28,15,51,9.60
2022,11,28,15,52,9.60
2022,11,28,15,53,12.90
2022,11,28,15,54,14.50
2022,11,28,15,55,14.50
2022,11,28,15,56,16.10
2022,11,28,15,57,11.30
2022,11,28,15,58,17.70
2022,11,28,15,59,14.50
2022,11,28,16,00,9.60
2022,11,28,16,01,12.90
2022,11,28,16,02,12.90
2022,11,28,16,03,14.50
2022,11,28,16,04,14.50
2022,11,28,16,05,14.50
2022,11,28,16,06,14.50
2022,11,28,16,07,12.90
2022,11,28,16,08,17.70
2022,11,28,16,09,12.90
2022,11,28,16,10,14.50
2022,11,28,16,11,16.10
2022,11,28,16,12,19.30
2022,11,28,16,13,16.10
2022,11,28,16,14,17.70
2022,11,28,16,15,16.10
2022,11,28,16,16,12.90
2022,11,28,16,17,12.90
2022,11,28,16,18,14.50
2022,11,28,16,19,16.10
2022,11,28,16,20,17.70
2022,11,28,16,21,19.30
2022,11,28,16,22,14.50
2022,11,28,16,23,12.90
2022,11,28,16,24,14.50
2022,11,28,16,25,12.90
2022,11,28,16,26,12.90
2022,11,28,16,27,17.70
2022,11,28,16,28,16.10
2022,11,28,16,29,14.50
2022,11,28,16,30,12.90
2022,11,28,16,31,16.10
2022,11,28,16,32,16.10
2022,11,28,16,33,16.10
2022,11,28,16,34,14.50
2022,11,28,16,35,14.50
2022,11,28,16,36,14.50
2022,11,28,16,37,16.10
2022,11,28,16,38,14.50
2022,11,28,16,39,14.50
2022,11,28,16,40,14.50
2022,11,28,16,41,12.90
2022,11,28,16,42,16.10
2022,11,28,16,43,14.50
2022,11,28,16,44,16.10
2022,11,28,16,45,11.30
2022,11,28,16,46,14.50
2022,11,28,16,47,16.10
2022,11,28,16,48,14.50
2022,11,28,16,49,14.50
2022,11,28,16,50,12.90
2022,11,28,16,51,17.70
2022,11,28,16,52,17.70
2022,11,28,16,53,16.10
2022,11,28,16,54,17.70
2022,11,28,16,55,14.50
2022,11,28,16,56,11.30
2022,11,28,16,57,12.90
2022,11,28,16,58,14.50
2022,11,28,16,59,14.50
2022,11,28,17,00,12.90
2022,11,28,17,01,16.10
2022,11,28,17,02,14.50
2022,11,28,17,03,14.50
2022,11,28,17,04,16.10
2022,11,28,17,05,20.90
2022,11,28,17,06,16.10
2022,11,28,17,07,16.10
2022,11,28,17,08,14.50
2022,11,28,17,09,16.10
2022,11,28,17,10,16.10
2022,11,28,17,11,14.50
2022,11,28,17,12,17.70
2022,11,28,17,13,16.10
2022,11,28,17,14,14.50
2022,11,28,17,15,12.90
2022,11,28,17,16,14.50
2022,11,28,17,17,11.30
2022,11,28,17,18,8.10
2022,11,28,17,19,16.10
2022,11,28,17,20,19.30
2022,11,28,17,21,19.30
2022,11,28,17,22,17.70
2022,11,28,17,23,20.90
2022,11,28,17,24,19.30
2022,11,28,17,25,17.70
2022,11,28,17,26,14.50
2022,11,28,17,27,16.10
2022,11,28,17,28,14.50
2022,11,28,17,29,17.70
2022,11,28,17,30,16.10
2022,11,28,17,31,16.10
2022,11,28,17,32,17.70
2022,11,28,17,33,17.70
2022,11,28,17,34,20.90